Theta_e
315 316 318 318 316 312 315 315 312 316 317 318 319 318 316 314 311 311 312 313 312 312 313 316 316 316 318 324 330 331 332 332 332 333 333 333 333 333 333 333 332 331 331 332
313 314 313 316 317 317 315 314 313 317 316 314 314 313 311 309 309 309 310 311 311 310 309 310 312 311 312 313 315 319 326 331 332 333 333 333 333 332 331 331 332 332 333 332
313 310 312 313 316 317 316 315 312 312 315 313 313 309 309 308 309 308 307 307 307 308 308 307 309 310 312 313 314 315 316 317 318 325 331 332 332 331 330 330 330 331 332 332
312 311 311 312 313 315 317 314 313 314 312 312 309 306 307 307 305 307 307 306 305 305 306 307 308 309 310 311 312 313 314 315 316 318 320 325 329 329 329 329 329 329 330 331
311 310 312 313 313 315 316 313 314 313 312 311 309 308 305 305 307 305 305 304 304 304 305 307 308 308 310 311 311 311 312 313 314 316 317 318 319 323 325 326 327 328 327 328
312 312 309 311 311 311 311 313 314 313 308 306 308 304 300 305 306 310 309 308 307 307 306 306 308 310 311 310 311 312 314 313 313 314 314 315 319 322 324 325 325 326 328 329
313 312 313 311 313 312 313 311 311 307 306 304 306 306 303 303 304 308 309 308 308 307 306 307 308 309 309 309 308 309 310 312 314 315 315 314 314 318 322 324 325 326 325 324
312 313 313 312 312 314 313 309 311 303 308 309 308 310 306 306 304 307 308 307 307 306 306 307 308 308 307 307 307 307 307 309 310 314 314 315 318 319 321 322 323 323 322 320
312 311 312 312 311 312 314 313 310 310 300 306 306 307 307 308 308 307 307 308 309 307 307 307 307 307 306 306 306 306 306 306 307 308 310 312 313 315 316 316 316 316 315 313
310 312 310 311 311 312 312 311 313 309 307 311 306 306 305 308 309 307 307 307 307 307 308 307 306 306 306 305 304 304 304 304 304 305 305 306 308 309 310 310 309 309 307 306
309 310 311 312 313 313 314 314 313 311 309 311 308 305 301 305 306 306 306 306 306 305 307 307 306 307 306 305 304 304 303 303 303 303 303 303 303 304 304 304 304 303 303 303
309 310 311 313 308 310 312 313 312 311 311 309 310 309 305 305 305 305 307 306 305 305 304 303 306 306 305 305 304 304 303 303 303 302 302 302 302 302 302 302 301 301 301 301
310 312 311 311 310 308 312 311 312 310 309 310 310 308 306 306 306 305 306 305 305 306 305 303 304 305 305 306 306 304 304 303 302 302 301 301 300 300 300 300 300 300 300 299
311 310 309 311 310 309 312 312 312 313 312 310 310 308 308 306 305 305 306 305 306 305 304 303 302 303 306 306 306 305 305 304 302 301 301 300 300 300 300 299 299 298 298 299
311 312 309 308 309 309 309 311 312 313 313 312 310 308 307 307 305 304 303 304 304 304 303 302 301 301 302 304 305 306 306 305 304 302 301 300 300 299 299 298 298 298 297 297
309 310 310 310 308 309 309 309 309 312 311 311 311 310 306 305 304 304 304 304 303 303 303 302 301 301 303 304 304 305 306 306 304 302 302 300 299 299 298 298 297 297 296 295
308 308 308 310 308 309 311 310 310 309 310 311 312 310 307 307 307 307 305 304 304 303 303 301 301 301 302 303 304 304 305 306 305 303 302 300 299 298 298 297 296 295 294 294
306 305 307 308 304 312 307 305 308 309 309 308 309 308 308 309 308 306 304 304 303 302 301 301 301 301 303 304 305 304 304 304 304 303 301 299 298 297 296 296 294 293 292 291
305 305 306 308 308 307 305 302 305 307 308 307 307 308 308 304 303 303 301 301 301 301 301 301 302 303 302 302 302 302 302 302 302 302 300 298 297 296 295 294 292 291 289 288
305 305 305 301 308 301 303 302 301 303 306 303 305 306 304 301 304 304 301 299 298 300 302 301 301 300 300 300 299 300 300 300 300 299 298 297 296 295 293 292 290 289 288 287
306 307 307 306 306 299 301 301 302 304 304 301 302 303 302 302 303 300 299 301 301 301 301 300 300 299 298 297 297 297 297 297 297 297 296 295 294 292 291 289 288 287 286 286
303 305 308 307 307 307 300 299 303 303 299 301 300 299 299 298 298 298 298 298 298 298 298 298 298 297 297 295 294 294 294 295 294 294 293 292 290 289 288 287 286 285 285 286
302 302 304 308 307 302 300 301 299 299 300 301 300 300 299 299 298 298 297 296 296 297 296 297 296 295 295 293 292 291 292 292 291 290 289 288 286 285 285 284 283 284 284 284
301 301 302 303 302 302 300 301 301 300 300 300 299 299 298 299 297 296 295 294 293 294 295 295 294 293 291 290 289 289 289 287 287 287 285 284 283 282 282 282 282 283 282 282
299 300 300 300 300 300 299 298 299 299 298 298 298 298 298 297 296 295 293 292 292 293 294 295 294 293 291 288 286 286 286 285 284 283 282 281 280 280 280 280 280 279 279 279
297 300 302 302 299 301 301 299 297 296 296 295 295 296 295 294 294 293 292 292 293 293 294 293 293 290 288 285 284 283 283 283 282 280 279 279 279 278 278 278 278 279 279 279
Wind_Speed
2 4 7 12 6 3 6 4 4 2 1 2 4 6 8 8 5 9 8 9 9 9 5 8 4 4 8 16 23 28 28 29 29 29 28 27 28 28 29 27 25 26 28 31
4 5 5 5 6 3 3 2 2 2 1 2 1 8 10 8 7 11 11 11 10 6 6 7 8 7 8 11 13 17 21 27 31 32 32 30 27 27 30 26 25 24 24 23
5 3 8 4 6 5 4 4 3 2 2 2 2 6 7 5 6 7 10 8 7 10 10 7 8 10 8 5 6 8 10 16 19 24 29 27 25 19 17 20 22 24 24 22
3 2 4 5 4 6 5 5 5 7 3 3 1 4 6 4 8 6 9 9 8 7 5 3 3 2 2 3 5 6 6 8 11 14 18 23 27 26 28 25 22 19 19 20
4 2 4 5 5 4 3 4 6 3 3 2 2 1 8 3 7 8 5 7 7 6 6 5 2 2 2 4 5 7 8 8 8 11 15 20 23 25 25 21 17 15 15 15
1 1 2 4 2 3 7 6 7 5 3 1 7 7 5 4 7 1 1 2 5 6 6 5 5 3 2 2 2 3 1 5 10 11 12 12 14 19 18 16 14 12 11 11
1 2 2 1 5 3 2 5 2 2 2 5 2 4 7 8 6 4 6 6 4 5 5 4 4 3 3 3 3 2 1 1 1 3 9 13 14 11 14 14 13 14 12 10
5 2 7 5 4 6 4 6 5 7 4 3 2 6 6 4 8 3 6 5 5 5 5 4 3 1 1 0 1 1 1 1 0 1 2 3 6 10 12 13 13 13 11 9
5 4 2 4 4 6 5 5 5 5 2 3 3 6 8 3 4 4 5 4 2 4 5 5 4 4 4 3 2 1 1 1 0 1 3 4 6 8 9 10 11 10 9 9
4 2 2 1 4 2 4 6 2 2 4 4 4 4 5 3 6 4 5 5 3 4 4 3 5 6 6 5 4 3 3 3 3 2 2 4 6 7 8 9 9 9 8 7
2 3 1 4 6 10 4 4 3 4 4 4 1 5 6 6 8 9 6 6 6 6 6 6 7 8 6 5 5 5 5 5 5 5 5 5 6 6 7 8 9 9 8 7
6 3 4 8 4 3 3 5 5 4 5 3 2 5 4 3 9 8 7 7 6 5 5 5 7 8 7 7 8 9 8 8 8 7 7 6 6 6 7 8 8 8 8 7
6 4 3 1 3 3 7 7 12 4 2 6 5 5 2 3 7 8 8 6 3 4 5 4 5 9 11 10 11 13 12 11 10 10 9 9 9 8 8 7 6 6 6 6
5 5 6 8 4 6 7 11 13 11 2 3 7 3 4 7 8 6 4 6 6 6 7 5 6 11 13 14 14 17 16 13 13 13 13 12 11 10 9 8 7 6 7 7
3 4 7 5 3 4 6 12 12 13 19 8 12 10 6 11 9 8 7 5 5 7 8 8 7 6 9 12 11 13 14 14 14 16 16 15 13 11 10 9 8 7 7 7
6 4 4 11 8 6 3 4 9 19 24 13 12 10 6 4 6 5 7 7 8 9 8 7 7 8 11 13 12 10 12 16 16 18 20 17 15 13 12 10 9 9 8 7
6 3 1 6 6 7 5 18 14 6 14 16 16 23 5 8 9 10 7 8 9 8 8 8 8 11 14 14 12 11 11 12 16 20 21 20 18 17 14 12 11 10 9 9
5 4 1 3 2 10 7 5 18 19 19 16 16 7 12 19 13 6 7 8 8 8 9 8 9 12 9 6 9 12 13 12 15 20 23 21 20 18 16 14 13 12 12 11
10 4 2 2 3 6 9 6 9 10 18 15 15 19 10 4 4 7 8 8 10 10 11 10 5 3 4 8 10 13 14 14 14 18 21 20 20 19 17 16 14 12 11 10
8 8 5 2 3 4 10 3 5 7 7 13 18 16 10 7 4 11 9 7 8 9 9 8 5 4 7 9 11 12 13 13 15 15 17 17 17 17 16 14 13 12 11 10
5 6 15 13 6 7 10 4 5 6 8 5 11 14 7 7 8 5 6 5 9 8 7 5 4 5 8 10 11 12 12 12 11 10 11 14 14 14 13 13 13 11 10 9
7 5 5 10 9 11 7 5 13 12 5 3 3 6 7 9 7 6 8 7 7 6 2 5 7 10 10 10 10 11 11 10 8 8 10 12 12 12 12 12 11 10 10 10
4 7 4 6 5 3 3 2 6 4 5 5 5 5 7 6 7 7 6 6 5 4 6 8 10 11 12 11 11 12 11 8 8 9 10 10 10 10 10 10 10 10 10 11
5 4 4 3 8 11 8 5 5 4 5 4 4 5 4 5 6 6 5 5 4 6 9 10 10 12 11 10 9 9 8 7 8 9 9 9 9 9 9 10 10 11 12 11
5 5 5 5 1 2 4 6 6 6 3 4 4 3 3 2 3 5 5 7 8 9 11 12 14 15 13 11 9 8 9 9 9 10 11 11 11 10 10 9 8 9 7 7
5 8 5 6 6 6 7 9 8 8 7 8 6 3 4 5 7 6 7 13 12 14 13 14 16 15 13 12 11 10 11 12 13 13 13 14 14 14 14 15 16 12 13 11
Wind_Direction
186 125 198 193 177 150 146 149 191 232 254 195 219 265 277 286 308 279 260 264 252 243 261 266 252 244 247 243 238 232 228 229 228 226 228 232 237 242 246 246 250 253 253 251
73 221 222 171 187 137 88 124 191 48 44 87 13 277 272 270 253 244 244 240 249 266 266 272 301 304 291 271 253 243 235 233 228 228 229 231 238 247 255 260 260 258 257 259
164 204 186 195 174 175 165 183 199 158 152 55 25 284 284 281 257 265 251 248 242 243 263 284 275 274 274 280 277 257 245 239 235 232 232 231 232 237 245 249 258 260 261 257
217 228 164 173 190 160 186 189 156 141 115 216 46 272 294 258 286 254 261 245 253 258 262 208 268 251 246 249 268 266 267 253 239 233 234 236 238 237 247 252 258 262 258 259
217 192 154 147 162 144 172 153 154 122 96 65 301 122 269 294 278 268 271 247 242 240 176 146 115 62 13 347 321 287 272 267 254 239 237 241 241 244 247 248 247 251 250 249
166 287 154 163 88 107 152 80 54 60 84 322 218 173 264 228 223 236 143 130 146 142 128 117 106 103 52 27 19 14 283 251 249 243 240 239 240 241 236 232 235 236 219 216
79 1 344 117 86 64 121 108 37 355 2 230 132 166 244 256 251 215 180 179 164 155 141 143 135 117 74 54 58 61 86 343 338 276 255 249 244 231 223 213 207 195 194 194
153 263 185 184 195 170 165 150 165 201 201 236 142 232 244 250 236 223 150 166 183 157 148 160 168 162 153 135 60 41 30 56 64 153 125 151 179 197 194 197 194 193 197 200
153 263 153 154 149 136 196 187 156 99 20 58 230 285 298 178 100 111 129 119 99 145 152 154 169 209 229 248 262 267 267 313 15 160 189 177 164 168 173 177 182 190 199 213
217 134 244 95 103 57 148 153 96 351 143 230 265 266 240 197 205 153 132 132 125 138 149 185 210 229 240 246 261 273 277 269 258 237 201 185 182 184 186 189 190 193 198 206
215 127 327 137 211 176 146 182 191 142 164 175 212 256 215 240 179 171 169 165 155 162 188 208 221 226 239 255 262 268 266 265 264 251 232 214 200 190 186 183 181 182 186 187
188 116 183 196 323 242 180 194 159 150 217 219 151 270 294 217 164 161 183 187 187 171 192 213 224 222 224 243 260 258 253 251 246 240 233 221 210 197 190 186 182 182 184 184
169 197 131 14 344 323 211 213 194 127 82 204 154 250 314 136 161 196 187 199 179 213 228 244 258 247 246 247 257 260 258 256 247 237 231 222 213 208 203 202 197 196 195 195
291 170 196 209 203 138 204 208 217 204 144 189 224 193 216 206 205 199 189 191 198 217 226 230 242 243 250 253 250 253 254 252 248 242 238 231 225 221 219 216 214 214 213 213
302 251 210 208 129 148 195 209 211 211 232 202 241 206 216 206 199 208 205 190 231 247 251 240 245 260 261 256 257 255 263 257 247 241 239 238 234 230 228 226 224 224 224 222
154 293 263 218 198 196 198 194 211 213 233 242 248 262 214 196 223 224 213 222 233 249 251 233 250 258 278 289 295 302 289 271 250 241 242 237 231 230 230 228 227 228 224 225
164 201 314 237 187 132 220 225 218 228 235 229 238 245 179 226 250 251 226 224 258 276 277 287 283 291 313 320 324 318 316 297 262 245 243 237 230 226 225 224 225 226 222 226
165 121 320 314 124 212 231 171 203 216 234 224 241 248 222 232 239 247 246 244 254 246 265 267 280 300 312 321 318 313 310 294 268 249 239 231 227 224 223 222 221 219 219 220
201 138 197 250 250 329 314 212 182 188 242 225 228 240 236 198 117 263 240 220 234 243 249 258 250 237 287 311 315 313 308 298 273 255 244 232 224 220 218 217 217 218 218 217
218 215 187 168 257 201 250 183 171 104 278 218 212 236 224 133 202 253 239 222 234 231 178 179 211 267 302 311 312 307 302 293 276 261 246 230 222 221 220 221 219 219 219 217
180 201 216 226 222 268 241 138 128 134 239 165 183 221 182 184 212 220 188 172 171 178 193 215 242 283 301 309 312 308 304 293 286 262 230 216 215 216 218 217 217 216 207 196
179 182 208 219 208 241 158 67 179 210 189 157 200 218 192 219 228 209 186 180 176 171 237 267 276 283 289 296 299 297 290 288 270 233 210 206 206 209 208 210 209 203 194 177
234 200 191 194 226 277 262 271 216 166 158 188 199 222 208 185 193 187 191 199 191 221 263 264 262 275 279 288 293 284 276 254 226 208 202 198 199 197 196 193 181 170 170 165
237 177 216 129 227 219 206 236 255 149 184 197 224 239 192 192 194 209 202 206 215 259 276 281 276 273 276 280 284 281 267 241 212 196 191 191 192 179 172 169 171 164 159 153
202 153 190 252 125 38 275 234 222 230 159 157 197 220 239 259 245 212 223 224 233 250 261 261 256 260 263 261 263 248 227 214 206 194 179 172 169 163 148 138 138 132 117 138
181 197 192 231 178 191 220 219 214 224 225 221 216 244 243 219 228 219 222 223 237 247 255 243 244 246 243 238 235 230 218 204 191 180 170 167 162 155 146 131 111 96 101 96